This demonstration page uses our WeatherBlox Daily Observations layout. Learn more.

Left ArrowRight Arrow

Hourly Observations for August 24, 2020

Temp ( °F °C ) Dew Point ( °F °C ) Humidity (%) Winds ( mph kmh ) Pressure ( in mb ) Visibility ( mi km ) Precip ( " mm )
12:53 am 00:53 Clear 76 24.4 62 16.7 62 62 SSW 6 9 29.96 1015 10 16 0.00 0.00
1:53 am 01:53 Clear 74 23.3 61 16.1 64 64 SSW 6 9 29.97 1015 10 16 0.00 0.00
2:53 am 02:53 Clear 72 22.2 60 15.6 66 66 SSW 7 11 29.98 1015 10 16 0.00 0.00
3:53 am 03:53 Clear 72 22.2 60 15.6 66 66 S 6 9 29.98 1015 10 16 0.00 0.00
4:53 am 04:53 Clear 70 21.1 59 15 68 68 S 6 9 29.97 1015 10 16 0.00 0.00
5:53 am 05:53 Clear 69 20.6 59 15 70 70 S 6 9 29.97 1015 10 16 0.00 0.00
6:53 am 06:53 Clear 68 20 58 14.4 70 70 S 6 9 29.98 1015 10 16 0.00 0.00
7:53 am 07:53 Sunny 68 20 58 14.4 70 70 S 7 11 29.98 1015 10 16 0.00 0.00
8:53 am 08:53 Sunny 72 22.2 60 15.6 66 66 SSW 9 15 29.98 1015 10 16 0.00 0.00
9:53 am 09:53 Sunny 77 25 61 16.1 58 58 SSW 10 17 29.98 1015 10 16 0.00 0.00
10:53 am 10:53 Sunny 83 28.3 61 16.1 48 48 SSW 9 15 29.98 1015 10 16 0.00 0.00
11:53 am 11:53 Sunny 87 30.6 62 16.7 43 43 S 9 15 29.99 1016 10 16 0.00 0.00
12:53 pm 12:53 Sunny 90 32.2 60 15.6 37 37 S 10 17 29.98 1015 10 16 0.00 0.00
1:53 pm 13:53 Sunny 93 33.9 60 15.6 33 33 S 9 15 29.97 1015 10 16 0.00 0.00
2:53 pm 14:53 Sunny 94 34.4 60 15.6 32 32 S 13 20 29.96 1015 10 16 0.00 0.00
3:53 pm 15:53 Sunny 94 34.4 60 15.6 32 32 S 12 19 29.95 1014 10 16 0.00 0.00
4:53 pm 16:53 Sunny 93 33.9 62 16.7 36 36 S 10 17 29.93 1014 10 16 0.00 0.00
5:53 pm 17:53 Sunny 92 33.3 62 16.7 37 37 S 9 15 29.93 1014 10 16 0.00 0.00
6:53 pm 18:53 Sunny 88 31.1 62 16.7 42 42 S 9 15 29.93 1014 10 16 0.00 0.00
7:53 pm 19:53 Sunny 86 30 62 16.7 45 45 SSE 8 13 29.93 1014 10 16 0.00 0.00
8:53 pm 20:53 Clear 82 27.8 65 18.3 56 56 SSE 10 17 29.93 1014 10 16 0.00 0.00
9:53 pm 21:53 Clear 79 26.1 64 17.8 60 60 S 8 13 29.95 1014 10 16 0.00 0.00
10:53 pm 22:53 Clear 77 25 62 16.7 60 60 S 7 11 29.95 1014 10 16 0.00 0.00
11:53 pm 23:53 Clear 75 23.9 61 16.1 62 62 S 7 11 29.95 1014 10 16 0.00 0.00

Powered by AerisWeather